Probability
0 0 0 0 0 0 0 0 0 0 0 0 0 0 0 0 0 0 0 0 0 0 0 0 0 0 0 0 0 0 0 0 0 0 0 0 0 0 0 0 0 0 0
0 0 0 0 0 0 0 0 0 0 0 0 0 0 0 0 0 0 0 0 0 0 0 0 0 0 0 0 0 0 0 0 0 0 0 0 0 0 0 0 0 0 0
0 0 0 0 0 0 0 0 0 0 0 0 0 0 0 0 0 0 0 0 0 0 0 0 0 0 0 0 0 0 0 0 0 0 0 0 0 0 0 0 0 0 0
0 0 0 0 0 0 0 0 0 0 0 0 0 0 0 0 0 0 0 0 0 0 0 0 0 0 0 0 0 0 0 0 0 0 0 0 0 0 0 0 0 0 0
0 0 0 0 0 0 0 0 0 0 0 0 0 0 0 0 0 0 0 0 0 0 0 0 0 0 0 0 0 0 0 0 0 0 0 0 0 0 0 0 0 0 0
0 0 0 0 0 0 0 0 0 0 0 0 0 0 0 0 0 0 0 0 0 0 0 0 0 0 0 0 0 0 0 0 0 0 0 0 0 0 0 0 0 0 0
0 0 0 0 0 0 0 0 0 0 0 0 0 0 0 0 0 0 0 0 0 0 0 0 0 0 0 0 0 0 0 0 0 0 0 0 0 0 0 0 0 0 0
0 0 0 0 0 0 0 0 0 0 0 0 0 0 0 0 0 0 0 0 0 0 0 0 0 0 0 0 0 0 0 0 0 0 0 0 0 0 0 0 0 0 0
0 0 0 0 0 0 0 0 0 0 0 0 0 0 0 0 0 0 0 0 0 0 0 0 0 0 0 0 0 0 0 0 0 0 0 0 0 0 0 0 0 0 0
0 0 0 0 0 0 0 0 0 0 0 0 0 0 0 0 0 0 0 0 0 0 0 0 0 0 0 0 0 0 0 0 0 0 0 0 0 0 0 0 0 0 0
0 0 0 0 0 0 0 0 0 0 0 0 0 0 0 0 0 0 0 0 0 0 0 0 0 0 0 0 0 0 0 0 0 0 0 0 0 0 0 0 0 0 0
0 0 0 0 0 0 0 0 0 0 0 0 0 0 0 0 0 0 0 0 0 0 0 0 0 0 0 0 0 0 0 0 0 0 0 0 0 0 0 0 0 0 0
0 0 0 0 0 0 0 0 0 0 0 0 0 0 0 0 0 0 0 0 0 0 0 0 0 0 0 0 0 0 0 0 0 0 0 0 0 0 0 0 0 0 0
0 0 0 0 0 0 0 0 0 0 0 0 0 0 0 0 0 0 0 0 0 0 0 0 0 0 0 0 0 0 0 0 0 0 0 0 0 0 0 0 0 0 0
0 0 0 0 0 0 0 0 0 0 0 0 0 0 0 0 0 0 0 0 0 0 0 0 0 0 0 0 0 0 0 0 0 0 0 0 0 0 0 0 0 0 0
0 0 0 0 0 0 0 0 0 0 0 0 0 0 0 0 0 0 0 0 0 0 0 0 0 0 0 0 0 0 0 0 0 0 0 0 0 0 0 0 0 0 0
0 0 0 0 0 0 0 0 0 0 0 0 0 0 0 0 0 0 0 0 0 0 0 0 0 0 0 0 0 0 0 0 0 0 0 0 0 0 0 0 0 0 0
0 0 0 0 0 0 0 0 0 0 0 0 0 0 0 0 0 0 0 0 0 0 0 0 0 0 0 0 0 0 0 0 0 0 0 0 0 0 0 0 0 0 0
0 0 0 0 0 0 0 0 0 0 0 0 0 0 0 0 0 0 0 0 0 0 0 0 0 0 0 0 0 0 0 0 0 0 0 0 0 0 0 0 0 0 0
0 0 0 0 0 0 0 0 0 0 0 0 0 0 0 0 0 0 0 0 0 0 0 0 0 0 0 0 0 0 0 0 0 0 0 0 0 0 0 0 0 0 0
0 0 0 0 0 0 0 0 0 0 0 0 0 0 0 0 0 0 0 0 0 0 0 0 0 0 0 0 0 0 0 0 0 0 0 0 0 0 0 0 0 0 0
1 1 1 1 1 0 0 0 0 0 0 0 0 0 0 0 0 0 0 0 0 0 0 0 0 0 0 0 0 0 0 0 0 0 0 0 0 0 0 0 0 0 0
6 4 2 2 2 1 0 0 0 0 0 0 0 0 0 0 0 0 0 0 0 0 0 0 0 0 0 0 0 0 0 0 0 0 0 0 0 0 0 0 0 0 0
11 9 6 4 2 1 0 0 0 0 0 0 0 0 0 0 0 0 0 0 0 0 0 0 0 0 0 0 0 0 0 0 0 0 0 0 0 0 0 0 0 0 0
12 11 10 6 3 1 0 0 0 0 0 0 0 0 0 0 0 0 0 0 0 0 0 0 0 0 0 0 0 0 0 0 0 0 0 0 0 0 0 0 0 0 0
10 11 10 7 4 2 1 0 0 0 0 0 0 0 0 0 0 0 0 0 0 0 0 0 0 0 0 0 0 0 0 0 0 0 0 0 0 0 0 0 0 0 0
Wind_Speed
4 3 2 2 2 1 1 1 1 1 1 1 1 3 4 4 4 3 3 9 10 11 12 13 13 13 12 12 11 11 11 10 10 9 10 11 11 11 11 10 10 10 9
4 3 3 2 2 1 2 2 2 2 1 1 1 2 3 4 4 4 3 5 10 10 11 12 13 13 13 13 12 12 11 11 10 10 10 10 10 11 11 10 10 10 9
5 4 3 2 1 2 3 3 3 2 2 2 2 1 2 3 4 4 4 3 3 8 10 10 10 11 13 13 13 13 12 11 11 10 10 10 11 11 10 10 10 10 9
6 4 3 2 2 3 3 3 2 3 2 2 1 1 1 1 2 3 3 3 2 3 6 9 10 10 11 12 13 13 13 12 11 11 10 10 11 11 10 10 10 10 9
5 4 3 2 3 3 2 2 2 2 2 1 1 1 1 1 1 2 2 3 3 3 3 5 8 9 10 11 11 11 12 12 11 11 11 11 11 11 11 11 11 11 10
5 5 3 3 4 3 3 2 2 2 1 1 1 2 2 1 0 1 1 1 2 3 3 3 3 5 8 9 9 9 10 11 11 11 11 11 11 11 11 11 11 11 11
5 5 4 3 3 3 2 2 2 3 2 1 3 3 4 3 2 1 1 1 1 1 2 2 2 2 2 5 7 8 9 10 11 12 12 11 11 11 11 12 11 11 12
5 5 5 3 3 3 3 3 3 2 2 2 3 3 3 4 4 3 1 1 1 1 1 2 2 2 1 1 2 6 8 9 10 10 11 11 10 10 10 11 12 12 12
5 5 5 4 4 3 3 2 3 3 2 2 1 3 3 2 2 3 3 1 1 1 1 1 2 2 2 1 1 2 4 5 6 7 8 9 10 10 11 11 12 12 12
5 5 5 5 4 3 3 2 3 3 3 1 2 1 2 3 3 1 3 3 2 0 0 1 2 2 2 2 2 2 3 2 3 4 4 5 6 8 9 11 12 12 13
5 5 5 5 4 3 4 3 3 3 2 2 1 1 2 2 2 3 0 3 3 2 1 1 1 1 2 2 2 2 3 3 2 2 2 3 4 6 8 9 11 12 12
3 4 5 5 5 4 4 3 3 4 3 3 2 2 2 2 1 2 2 1 2 3 2 1 1 1 2 2 3 5 4 4 3 3 3 3 3 4 6 8 10 11 12
3 4 5 4 4 4 4 4 3 3 3 3 2 2 2 2 2 3 3 1 1 2 2 2 1 1 2 2 2 5 5 5 4 4 4 4 4 5 5 6 8 9 10
5 6 6 6 5 5 5 4 3 3 3 3 2 2 1 1 2 2 3 3 1 2 2 3 2 1 1 2 4 5 3 6 6 6 6 6 6 6 6 6 6 7 7
5 6 6 6 5 5 5 5 3 3 3 3 2 2 1 1 1 1 2 3 4 1 2 3 2 2 1 2 4 3 4 7 9 9 9 9 9 8 8 7 7 7 7
6 7 7 6 6 5 5 4 3 3 3 3 2 2 2 1 0 1 1 2 3 4 2 3 3 3 2 2 5 4 5 8 10 10 11 11 11 11 10 10 9 8 8
7 8 8 7 7 6 5 5 4 4 4 3 3 3 3 2 1 1 1 1 2 3 3 3 2 2 2 3 3 3 4 5 5 10 12 12 13 13 12 12 11 10 10
8 8 8 7 7 7 6 6 6 5 5 5 5 4 4 3 3 2 2 2 2 3 3 4 3 2 4 4 4 4 4 5 5 9 11 12 13 13 13 13 13 12 12
7 7 7 8 7 7 7 7 6 6 6 6 6 6 6 5 5 4 4 3 3 3 3 3 4 3 3 3 3 4 4 4 5 7 9 10 11 12 13 13 14 14 13
8 8 7 7 7 6 7 6 6 6 6 6 6 6 7 7 7 6 5 5 4 3 3 3 4 3 3 3 2 3 4 3 4 4 5 5 7 9 11 12 13 14 14
7 7 7 7 6 6 6 7 6 7 6 6 6 6 7 9 10 8 6 5 5 4 4 4 4 3 4 3 3 3 4 4 4 3 3 4 3 3 5 8 11 13 14
6 7 8 8 7 7 9 11 8 6 6 6 6 6 6 8 10 12 12 11 9 7 6 5 5 6 7 5 4 4 3 3 4 3 2 4 3 4 5 5 9 13 14
6 6 7 7 8 8 10 11 12 7 6 7 7 6 6 6 7 6 8 11 11 13 13 8 8 9 8 7 5 5 5 6 7 4 2 5 4 6 6 7 12 14 14
6 6 7 7 7 8 11 11 11 8 6 7 7 7 6 6 5 5 5 6 7 8 10 9 9 10 9 8 7 8 8 6 6 5 4 5 5 6 7 6 11 15 15
5 6 5 6 6 7 9 11 10 5 5 7 6 5 6 6 7 7 4 6 7 8 9 12 13 13 15 14 10 4 5 5 7 6 5 5 5 5 5 6 9 14 15
5 4 4 5 6 5 7 10 10 4 4 4 4 4 7 7 7 6 5 5 8 8 6 7 8 10 11 12 14 10 8 8 7 6 5 5 5 4 4 5 6 6 7
Wind_Direction
144 139 133 124 126 126 125 104 89 87 94 90 99 114 133 147 157 164 188 199 200 197 192 186 185 184 184 182 179 177 175 174 171 169 169 169 168 166 165 163 161 159 156
139 132 122 111 102 109 113 104 91 85 72 67 77 111 138 150 161 171 183 211 210 204 199 193 192 190 190 189 186 185 182 180 177 177 176 175 175 173 173 172 171 170 167
131 126 118 109 104 97 92 76 61 63 65 61 55 73 127 153 165 173 180 199 212 209 202 197 197 197 197 196 193 193 192 187 183 183 184 183 182 181 180 179 178 176 175
127 118 115 110 100 90 88 85 65 65 57 59 53 31 78 142 165 180 185 193 201 208 208 204 202 203 204 204 201 200 199 196 191 189 190 190 189 187 186 184 184 183 183
125 120 118 112 99 86 80 88 71 85 71 42 32 67 47 125 163 170 174 191 197 201 203 213 211 210 213 214 210 205 205 203 198 197 197 198 197 194 192 190 191 190 189
125 117 114 107 102 93 79 76 73 62 88 70 40 39 9 5 86 121 150 165 187 190 186 201 210 221 220 222 219 214 212 207 204 203 204 203 204 201 198 197 197 197 196
129 122 117 113 108 108 112 102 87 61 36 47 63 27 5 12 30 51 85 102 111 139 156 180 189 203 228 230 227 219 220 218 213 210 210 211 211 208 206 205 203 203 203
138 137 128 130 124 112 95 80 82 82 28 51 104 85 33 5 357 8 14 90 88 86 128 165 169 180 201 207 232 223 221 222 222 221 218 216 214 212 211 212 210 209 209
143 138 140 135 132 125 122 109 99 102 78 15 83 129 129 190 315 337 351 16 56 74 81 143 159 168 173 169 205 233 216 220 228 231 232 226 220 217 216 217 217 214 214
151 147 144 139 135 132 133 132 112 110 108 60 10 45 132 151 137 357 334 340 349 37 212 159 147 153 154 155 165 157 173 193 214 233 240 238 230 221 220 223 225 223 220
160 154 148 141 138 138 140 129 115 109 114 122 100 66 63 63 92 128 265 323 338 321 290 204 177 170 166 156 168 184 170 172 188 222 241 248 240 231 229 234 236 235 232
168 164 155 149 149 147 148 146 136 127 126 122 114 108 121 120 132 129 153 257 298 300 310 298 228 196 188 178 197 183 183 189 204 222 236 244 251 253 247 245 245 244 243
180 185 165 160 159 163 162 152 142 145 145 136 140 136 138 158 161 147 134 161 307 307 326 317 271 217 196 182 194 188 197 203 216 230 242 248 255 262 263 261 258 254 252
188 182 174 173 172 169 165 156 150 164 153 153 154 150 145 169 158 154 152 142 76 338 329 300 311 256 222 200 215 201 218 225 228 236 245 252 255 259 263 264 265 264 262
188 179 175 176 176 172 166 158 161 178 169 173 175 171 167 205 164 158 153 149 146 157 282 287 294 283 249 229 227 212 227 238 238 243 248 252 255 256 256 255 255 257 259
180 170 174 175 176 174 169 162 167 179 175 190 188 177 192 212 192 158 156 152 149 156 213 262 259 266 254 240 228 224 236 244 245 247 249 252 255 256 255 254 253 252 252
176 176 178 177 178 178 174 171 185 182 188 207 208 195 211 204 202 215 185 160 162 153 200 269 269 274 262 261 264 251 249 246 252 252 252 253 254 254 253 252 251 251 251
180 179 176 179 185 186 182 182 195 195 195 207 215 208 220 210 213 224 213 211 206 190 189 243 275 276 261 255 254 258 255 247 245 256 256 257 256 254 252 250 249 248 248
179 178 176 183 189 189 189 192 195 200 203 209 210 208 214 205 216 220 216 216 220 215 195 215 256 261 268 268 273 275 269 267 263 261 259 258 257 256 253 251 248 247 246
179 182 182 186 189 192 195 198 196 201 209 214 215 214 214 208 213 216 219 219 217 219 215 224 250 261 264 271 256 266 283 273 269 273 273 268 264 264 261 257 254 251 249
189 185 185 192 191 193 200 199 201 207 211 219 223 222 222 219 217 214 215 213 211 219 224 230 246 258 260 260 250 242 254 271 273 255 269 273 270 271 271 265 260 255 251
196 190 193 196 200 210 209 205 202 212 213 218 226 230 235 233 233 230 231 223 209 212 221 225 236 240 250 241 239 235 238 258 277 257 227 263 247 260 259 252 254 255 254
196 201 205 202 207 217 216 213 211 208 214 220 223 226 239 239 231 233 241 242 236 232 224 222 233 241 244 236 227 238 233 230 241 239 209 263 252 257 257 258 255 254 254
201 207 210 208 211 222 218 220 218 214 219 223 221 219 224 240 237 228 238 249 250 246 238 233 235 244 244 239 224 231 238 245 254 249 203 248 256 251 260 256 258 255 254
208 209 207 208 215 225 216 217 215 212 224 232 231 226 222 229 242 235 232 250 262 265 258 246 241 245 249 248 238 236 240 241 259 257 207 219 250 256 257 256 256 251 251
205 201 213 215 216 223 219 217 210 207 225 239 242 241 236 238 251 244 230 241 257 264 266 274 263 259 254 254 244 230 230 236 247 256 226 208 238 237 267 258 251 248 248